Location: Bonnesvalyn
(49.1218°N, 3.3177°E)
Time: 00:01:47
(UTC+00:00)

CZ-4B DEB - Pass Details

Date: 09 February 2023
Orbit: 839 x 859 km, 99.1° (Epoch: 29 March)

Event Time Altitude Azimuth Distance (km) Brightness Sun altitude
Rises 18:14:24 0° 168° (SSE) 3,382 7.3 -13.2°
Reaches altitude 10° 18:16:45 10° 171° (S) 2,453 6.6 -13.5°
Maximum altitude 18:22:12 73° 256° (WSW) 883 4.5 -14.4°
Drops below altitude 10° 18:27:42 10° 341° (NNW) 2,482 6.8 -15.3°
Sets 18:30:06 0° 344° (NNW) 3,424 7.5 -15.7°
